[[{"header":{"parameterUnit":"m.s-1","parameterCategory":1,"la1":30.2991,"la2":30.254,"lo1":-89.0895,"lo2":-89.0444,"dy":0.0017,"dx":0.0017,"nx":28,"ny":28,"refTime":"2025-08-03T03:00:00:Z","depth":0,"parameterNumber":2,"parameterNumberName":"U-component_of_WINDS"},"data":[0,0,0,0,0,0,0,0,0,0,0,0,0,0,0,0,0,0,0,0,0,0,0,0,0,0,0,0,0,0,0,0,0,0,0,0,0,0,0,0,0,0,0,0,0,0,0,0,0,0,0,0,0,0,0,0,0,0,-0.2493,-0.2494,0,-0.2577,-0.2578,-0.2579,-0.2605,-0.2605,-0.2604,-0.2604,-0.269,-0.2693,-0.2695,0,0,0,0,0,0,0,0,0,0,0,0,0,-0.2351,-0.2354,-0.2493,-0.2494,-0.2495,-0.2577,-0.2578,-0.2579,-0.2605,-0.2605,-0.2604,-0.2604,-0.2689,-0.2692,-0.2696,0,0,0,0,0,0,0,0,0,0,0,0,0,-0.2422,-0.2355,-0.2493,-0.2518,-0.2521,-0.2577,-0.2578,-0.258,-0.2605,-0.2605,-0.2604,-0.2604,-0.2688,-0.2692,-0.2696,-0.2733,0,0,-0.2708,-0.271,0,0,0,0,0,0,0,0,-0.2418,-0.2427,-0.2513,-0.2516,-0.252,-0.258,-0.256,-0.2631,-0.2606,-0.2573,-0.2604,-0.2603,-0.2654,-0.2661,-0.2678,-0.2737,-0.2741,-0.2709,-0.2711,-0.2713,-0.2714,0,0,0,0,0,0,0,-0.2413,-0.2424,-0.2526,-0.2514,-0.2518,-0.2524,-0.2533,-0.2573,-0.2616,-0.2576,-0.2578,-0.2588,-0.2656,-0.2674,-0.268,-0.2742,-0.2708,-0.2712,-0.2715,-0.2716,-0.2832,-0.2832,0,0,0,0,0,0,-0.2404,-0.2419,-0.2524,-0.2529,-0.2466,-0.2527,-0.2537,-0.2561,-0.2616,-0.2623,-0.2588,-0.2589,-0.2667,-0.2675,-0.2683,-0.2728,-0.2713,-0.2716,-0.2719,-0.2831,-0.2832,-0.2833,0,0,0,0,0,0,-0.2401,-0.2413,-0.252,-0.2475,-0.2489,-0.253,-0.2557,-0.2563,-0.2582,-0.2625,-0.2632,-0.2599,-0.2667,-0.2678,-0.272,-0.2732,-0.2718,-0.2722,-0.283,-0.2831,-0.2832,-0.282,0,0,0,0,0,0,-0.2397,-0.2412,-0.2427,-0.2475,-0.2491,-0.2556,-0.2557,-0.2565,-0.2589,-0.259,-0.2637,-0.2645,-0.2668,-0.2713,-0.2724,-0.2737,-0.2725,-0.2829,-0.2831,-0.2832,-0.2819,-0.282,-0.2821,0,0,0,0,0,-0.2392,-0.2421,-0.2428,-0.244,-0.2511,-0.2557,-0.2566,-0.2592,-0.2589,-0.2605,-0.2632,-0.2643,-0.2728,-0.2718,-0.2729,-0.2744,-0.2829,-0.283,-0.2832,-0.2819,-0.282,-0.2821,0,0,0,0,0,0,-0.2375,-0.2428,-0.2436,-0.2482,-0.2514,-0.2561,-0.2582,-0.2593,-0.2627,-0.2627,-0.2657,-0.2668,-0.2707,-0.273,-0.2717,-0.2781,-0.2779,-0.2783,-0.2765,-0.2766,-0.2767,-0.2761,-0.2728,0,0,0,0,0,-0.2376,-0.2409,-0.2454,-0.249,-0.2505,-0.254,-0.2561,-0.2578,-0.2613,-0.2627,-0.2657,-0.269,-0.2724,-0.2746,-0.278,-0.2822,-0.2831,-0.2837,-0.2838,-0.2838,-0.2842,-0.2863,-0.2865,-0.2838,-0.2838,-0.2837,0,0,-0.238,-0.2413,-0.2432,-0.2487,-0.2514,-0.2547,-0.2552,-0.2587,-0.2611,-0.2632,-0.2674,-0.2696,-0.2735,-0.2776,-0.2796,-0.2796,-0.2851,-0.284,-0.284,-0.2844,-0.2864,-0.2867,-0.2869,-0.2839,-0.2838,-0.2838,0,0,-0.2403,-0.2432,-0.2464,-0.2491,-0.2531,-0.2554,-0.2561,-0.2605,-0.2621,-0.2663,-0.2679,-0.2707,-0.2766,-0.2792,-0.2813,-0.2841,-0.2852,-0.2851,-0.2856,-0.2876,-0.2878,-0.288,-0.2889,-0.2892,-0.2854,-0.2854,-0.2854,0,-0.2403,-0.2454,-0.2479,-0.2513,-0.2535,-0.2555,-0.2586,-0.2611,-0.266,-0.2675,-0.2674,-0.2746,-0.2773,-0.282,-0.2826,-0.2843,-0.2851,-0.2847,-0.2876,-0.2878,-0.288,-0.2889,-0.2893,-0.2853,-0.2854,-0.2854,-0.2854,0,-0.245,-0.2484,-0.2505,-0.2551,-0.2576,-0.2609,-0.2638,-0.2659,-0.2673,-0.2695,-0.2735,-0.2768,-0.2808,-0.282,-0.2834,-0.2867,-0.2866,-0.287,-0.2869,-0.2882,-0.2891,-0.2895,-0.2853,-0.2853,-0.2853,-0.2853,0,0,-0.2468,-0.2526,-0.2533,-0.2553,-0.2598,-0.2624,-0.2656,-0.2694,-0.2711,-0.2743,-0.277,-0.2817,-0.282,-0.2844,-0.286,-0.2878,-0.2896,-0.288,-0.2881,-0.2881,-0.2932,-0.2929,-0.2933,-0.2903,-0.2903,-0.2904,-0.2929,0,-0.2497,-0.2555,-0.2578,-0.2625,-0.2656,-0.2672,-0.27,-0.2729,-0.2749,-0.2777,-0.2799,-0.2831,-0.2834,-0.2848,-0.2866,-0.289,-0.2907,-0.2888,-0.2927,-0.2928,-0.2917,-0.2938,-0.2935,-0.2957,-0.2933,-0.2933,-0.2934,0,-0.2539,-0.2571,-0.2621,-0.2659,-0.2672,-0.2697,-0.2732,-0.2759,-0.2791,-0.2804,-0.2828,-0.2843,-0.2875,-0.287,-0.2914,-0.2901,-0.2917,-0.2931,-0.2932,-0.2937,-0.2932,-0.2943,-0.2965,-0.2968,-0.294,-0.2939,-0.2939,0,-0.2546,-0.2601,-0.2638,-0.2654,-0.27,-0.2716,-0.2735,-0.2767,-0.2787,-0.2817,-0.2831,-0.2864,-0.2882,-0.2907,-0.2929,-0.2924,-0.297,-0.2968,-0.2981,-0.298,-0.2991,-0.299,-0.3016,-0.3001,-0.3001,-0.3001,-0.3001,0,-0.2576,-0.2606,-0.2641,-0.2664,-0.2696,-0.272,-0.2752,-0.2772,-0.2799,-0.2825,-0.2841,-0.2864,-0.2892,-0.2919,-0.2936,-0.2968,-0.2977,-0.2987,-0.2992,-0.2986,-0.2985,-0.2998,-0.2997,-0.3002,-0.3002,-0.3001,-0.3001,0,-0.2591,-0.2615,-0.2656,-0.2694,-0.2704,-0.2727,-0.2759,-0.2781,-0.28,-0.2832,-0.284,-0.2871,-0.2902,-0.2927,-0.2968,-0.2979,-0.3013,-0.3018,-0.3002,-0.3005,-0.3016,-0.3014,-0.3051,-0.3057,-0.3038,-0.3038,-0.3038,0,-0.2608,-0.2631,-0.2671,-0.2689,-0.2709,-0.2738,-0.2758,-0.2781,-0.2802,-0.2838,-0.2855,-0.2887,-0.2914,-0.2963,-0.2988,-0.3019,-0.3025,-0.3035,-0.303,-0.3022,-0.3024,-0.3022,-0.3024,-0.3036,-0.3036,-0.3037,-0.3037,0,-0.2637,-0.2647,-0.2676,-0.2708,-0.2732,-0.2759,-0.2786,-0.2799,-0.2827,-0.2848,-0.288,-0.2901,-0.2942,-0.2973,-0.3006,-0.3025,-0.3035,-0.3038,-0.3042,-0.3037,-0.3027,-0.3032,-0.3004,-0.3037,-0.3037,-0.3037,-0.3037,-0.3037,-0.2653,-0.2673,-0.2704,-0.2735,-0.2757,-0.2781,-0.2802,-0.2823,-0.2851,-0.2886,-0.2897,-0.293,-0.2958,-0.3003,-0.3021,-0.3046,-0.3046,-0.3053,-0.3055,-0.3056,-0.3055,-0.3022,-0.3052,-0.3052,-0.3052,-0.3052,-0.3052,0,-0.2682,-0.2702,-0.273,-0.2766,-0.279,-0.2796,-0.2825,-0.2844,-0.2873,-0.2898,-0.2924,-0.2959,-0.2989,-0.3015,-0.3045,-0.3059,-0.3065,-0.3067,-0.3066,-0.307,-0.3054,-0.3046,-0.3062,-0.3062,-0.3062,-0.3062,-0.3062,-0.3062,-0.27,-0.2734,-0.2747,-0.2791,-0.281,-0.2842,-0.2858,-0.2879,-0.29,-0.2938,-0.2963,-0.2979,-0.3004,-0.3036,-0.3062,-0.3069,-0.3079,-0.308,-0.3088,-0.3072,-0.3071,-0.307,-0.3063,-0.3082,-0.3082,-0.3102,-0.3102,-0.3102]},{"header":{"parameterUnit":"m.s-1","parameterCategory":1,"la1":30.2991,"la2":30.254,"lo1":-89.0895,"lo2":-89.0444,"dy":0.0017,"dx":0.0017,"nx":28,"ny":28,"refTime":"2025-08-03T03:00:00:Z","depth":0,"parameterNumber":3,"parameterNumberName":"V-component_of_WINDS"},"data":[0,0,0,0,0,0,0,0,0,0,0,0,0,0,0,0,0,0,0,0,0,0,0,0,0,0,0,0,0,0,0,0,0,0,0,0,0,0,0,0,0,0,0,0,0,0,0,0,0,0,0,0,0,0,0,0,0,0,-2.603,-2.6028,0,-2.5804,-2.5801,-2.5799,-2.5668,-2.5668,-2.5667,-2.5667,-2.542,-2.5414,-2.5408,0,0,0,0,0,0,0,0,0,0,0,0,0,-2.6332,-2.6327,-2.6031,-2.6028,-2.6025,-2.5804,-2.5801,-2.5798,-2.5668,-2.5668,-2.5667,-2.5667,-2.5422,-2.5414,-2.5407,0,0,0,0,0,0,0,0,0,0,0,0,0,-2.6163,-2.6326,-2.6031,-2.5934,-2.5923,-2.5805,-2.5801,-2.5797,-2.5668,-2.5668,-2.5667,-2.5666,-2.5424,-2.5415,-2.5406,-2.5363,0,0,-2.5378,-2.5374,0,0,0,0,0,0,0,0,-2.6172,-2.6152,-2.5951,-2.594,-2.5928,-2.5764,-2.5817,-2.5651,-2.5668,-2.5765,-2.5667,-2.5666,-2.5534,-2.5515,-2.5474,-2.5351,-2.534,-2.5377,-2.5371,-2.5367,-2.5365,0,0,0,0,0,0,0,-2.6184,-2.616,-2.594,-2.5948,-2.5934,-2.5895,-2.5871,-2.5785,-2.5655,-2.5756,-2.5746,-2.5722,-2.5527,-2.5483,-2.5467,-2.5337,-2.5377,-2.5369,-2.5363,-2.536,-2.5158,-2.5158,0,0,0,0,0,0,-2.6214,-2.6171,-2.5948,-2.5934,-2.6051,-2.5891,-2.5863,-2.5817,-2.5656,-2.5631,-2.5723,-2.5717,-2.5499,-2.5478,-2.5458,-2.5392,-2.5367,-2.5359,-2.5354,-2.5158,-2.5158,-2.5158,0,0,0,0,0,0,-2.6221,-2.6195,-2.5957,-2.605,-2.6016,-2.5886,-2.5836,-2.5813,-2.5769,-2.5631,-2.5605,-2.5703,-2.5498,-2.5471,-2.5387,-2.5382,-2.5355,-2.5346,-2.5158,-2.5158,-2.5158,-2.5264,0,0,0,0,0,0,-2.623,-2.6199,-2.6186,-2.6051,-2.6012,-2.5896,-2.5836,-2.5809,-2.5755,-2.5745,-2.5606,-2.5581,-2.5495,-2.5401,-2.5378,-2.5369,-2.5339,-2.5158,-2.5158,-2.5158,-2.5261,-2.5268,-2.5275,0,0,0,0,0,-2.6241,-2.6223,-2.6186,-2.616,-2.5994,-2.5896,-2.5873,-2.5779,-2.5756,-2.5738,-2.5648,-2.5586,-2.5387,-2.5394,-2.5366,-2.5355,-2.5157,-2.5158,-2.5158,-2.5257,-2.5267,-2.5274,0,0,0,0,0,0,-2.6357,-2.6203,-2.6161,-2.6099,-2.6012,-2.5874,-2.585,-2.5792,-2.5706,-2.57,-2.5581,-2.555,-2.5476,-2.5406,-2.5417,-2.53,-2.5264,-2.5259,-2.5349,-2.5357,-2.5364,-2.5382,-2.5331,0,0,0,0,0,-2.6376,-2.6315,-2.6181,-2.6139,-2.6098,-2.5982,-2.5935,-2.587,-2.5773,-2.5734,-2.5638,-2.5541,-2.5455,-2.5402,-2.5316,-2.5249,-2.5213,-2.5226,-2.5234,-2.524,-2.5237,-2.5189,-2.5192,-2.516,-2.516,-2.516,0,0,-2.6413,-2.6322,-2.629,-2.616,-2.6085,-2.6018,-2.5952,-2.5884,-2.5831,-2.5722,-2.5637,-2.5563,-2.5446,-2.5369,-2.533,-2.5308,-2.5237,-2.5241,-2.5247,-2.5239,-2.519,-2.5193,-2.5196,-2.516,-2.516,-2.516,0,0,-2.6447,-2.6374,-2.6329,-2.6255,-2.6143,-2.6065,-2.6054,-2.5923,-2.5871,-2.5785,-2.57,-2.5631,-2.5489,-2.5408,-2.5348,-2.5344,-2.5282,-2.5319,-2.5356,-2.5311,-2.5313,-2.5315,-2.531,-2.531,-2.5316,-2.5316,-2.5316,0,-2.6507,-2.6408,-2.6312,-2.6249,-2.6191,-2.6092,-2.6042,-2.5972,-2.5836,-2.5796,-2.5774,-2.559,-2.5504,-2.5404,-2.5403,-2.5359,-2.5338,-2.5335,-2.5322,-2.5322,-2.5322,-2.5316,-2.5315,-2.5321,-2.5321,-2.532,-2.532,0,-2.6484,-2.6416,-2.6392,-2.6267,-2.6206,-2.615,-2.6039,-2.5987,-2.5925,-2.5848,-2.5756,-2.565,-2.5539,-2.551,-2.5448,-2.5398,-2.5388,-2.5346,-2.5308,-2.5332,-2.5324,-2.5321,-2.5329,-2.5327,-2.5325,-2.5324,0,0,-2.6587,-2.6408,-2.64,-2.634,-2.6207,-2.6149,-2.6084,-2.5979,-2.5936,-2.5843,-2.5781,-2.566,-2.5619,-2.5551,-2.5478,-2.5439,-2.5437,-2.54,-2.5395,-2.5408,-2.537,-2.5402,-2.5401,-2.5395,-2.5394,-2.5393,-2.5379,0,-2.66,-2.6487,-2.6395,-2.6312,-2.6244,-2.6146,-2.6088,-2.5996,-2.592,-2.5846,-2.5758,-2.5674,-2.5628,-2.5586,-2.5543,-2.5448,-2.5428,-2.5447,-2.533,-2.5328,-2.5363,-2.5398,-2.5432,-2.5424,-2.5375,-2.5375,-2.5374,0,-2.6601,-2.6516,-2.6428,-2.6297,-2.6265,-2.6216,-2.6109,-2.6042,-2.5932,-2.5878,-2.5801,-2.5724,-2.5643,-2.5613,-2.5496,-2.5511,-2.5456,-2.5401,-2.5398,-2.5383,-2.5353,-2.5381,-2.5419,-2.5418,-2.5369,-2.5369,-2.5369,0,-2.6681,-2.6544,-2.6472,-2.6424,-2.627,-2.6237,-2.617,-2.606,-2.6001,-2.5906,-2.5865,-2.5759,-2.5701,-2.5617,-2.5511,-2.55,-2.5403,-2.5365,-2.5351,-2.5354,-2.5335,-2.5338,-2.5364,-2.5304,-2.5304,-2.5304,-2.5304,0,-2.6704,-2.6653,-2.6506,-2.6462,-2.6399,-2.6291,-2.6229,-2.6153,-2.6055,-2.5989,-2.5895,-2.5833,-2.5698,-2.5618,-2.5533,-2.5446,-2.542,-2.537,-2.5348,-2.5378,-2.5384,-2.5341,-2.5338,-2.5303,-2.5303,-2.5303,-2.5303,0,-2.6784,-2.6684,-2.6599,-2.6461,-2.6424,-2.6384,-2.6261,-2.621,-2.6128,-2.6045,-2.6018,-2.5886,-2.5786,-2.5673,-2.5534,-2.5476,-2.5394,-2.5363,-2.5433,-2.542,-2.5412,-2.5414,-2.541,-2.5402,-2.535,-2.5351,-2.5351,0,-2.6805,-2.6764,-2.6622,-2.6573,-2.651,-2.6433,-2.6373,-2.6261,-2.6201,-2.607,-2.6033,-2.5927,-2.5837,-2.568,-2.5567,-2.5458,-2.5422,-2.5428,-2.5405,-2.5435,-2.5418,-2.5422,-2.5414,-2.5435,-2.5436,-2.5437,-2.5438,0,-2.6852,-2.6804,-2.6724,-2.6625,-2.6557,-2.6472,-2.6383,-2.6346,-2.6215,-2.6151,-2.605,-2.598,-2.5839,-2.5732,-2.5609,-2.5531,-2.546,-2.5446,-2.5436,-2.5466,-2.5508,-2.5482,-2.5449,-2.5446,-2.5445,-2.5445,-2.5444,-2.5444,-2.69,-2.6858,-2.6751,-2.6662,-2.6584,-2.6502,-2.6447,-2.6358,-2.6274,-2.6154,-2.609,-2.5989,-2.5872,-2.57,-2.5625,-2.5538,-2.5515,-2.5502,-2.5498,-2.5497,-2.5504,-2.5523,-2.5515,-2.5515,-2.5514,-2.5514,-2.5514,0,-2.694,-2.6866,-2.6786,-2.6666,-2.6595,-2.6539,-2.6436,-2.6378,-2.6292,-2.6192,-2.6105,-2.5985,-2.588,-2.5758,-2.5643,-2.5597,-2.556,-2.557,-2.5571,-2.5553,-2.5533,-2.5552,-2.5601,-2.5601,-2.5601,-2.5601,-2.5601,-2.5601,-2.6952,-2.6876,-2.6814,-2.6695,-2.6618,-2.6523,-2.6468,-2.6388,-2.6308,-2.6181,-2.6095,-2.6018,-2.5905,-2.5781,-2.5679,-2.5645,-2.5605,-2.5624,-2.558,-2.5563,-2.5555,-2.5549,-2.5565,-2.5617,-2.5617,-2.5607,-2.5607,-2.5607]}]]